Schwerin Parchim, Germany

05:43 AM CEST am 26. Juni 2017 (GMT +0200)
Schwerin-Parchim

Wetter Verlauf für EDOP - Juni, 2017

Change the Weather History Date:

Montag, Juni 19, 2017

  Actual Average Record
Temperature  
mittlereTemperatur 70 °F -  
Max. Temperatur 82 °F - - ()
Min.Temperatur 59 °F - - ()
Cooling Degree Days 6    
Growing Degree Days 20 (Base 50)    
Moisture  
Taupunkt 62 °F    
Average Humidity 63    
Maximum Humidity 100    
Minimum Humidity 48    
Niederschlag  
Niederschlag 0.00 inch - - ()
Luftdruck in Meereshöhe  
Luftdruck in Meereshöhe 30.16 inch    
Wind  
Windgeschwindigkeit 4 mph ()    
Max. Windgeschwindigkeit 9 mph    
Max Gust Speed -    
Sichtweite 6.2 Meilen    
Ereignisse      
T = Trace of Precipitation, MM = Missing Value Source: Averaged Metar Reports

Daily Weather History Graph

Daily Weather History Graph

Search for Another Location

Airport or City:

Trip Planner

Search our weather history database for the weather conditions in past years. The results will help you decide how hot, cold, wet, or windy it might be!

Date:

Astronomie

Jun. 19, 2017 Aufgang Untergang
Genaue Zeit 04:43 CEST 21:44 CEST
Bürgerliche Dämmerung 03:50 CEST 22:37 CEST
Nautische Dämmerung 02:15 CEST 00:13 CEST
Astronomische Dämmerung Sun does not set Sun does not set
Mond 02:16 CEST (6/19) 15:29 CEST (6/19)
Länge des sichtbaren Lichts 18h 46m
Tageslänge
17h 01m
Letztes Viertel, 29% of the Moon is Illuminated
Jun 19
Letztes Viertel
Jun 24
Neu
Jul 1
Erstes Viertel
Jul 9
Vollmond
Jul 16
Letztes Viertel

Hourly Weather History & Observations

Zeit (CEST) Temp. Hitzeindex Taupunkt Feuchtigkeit Druck Sichtweite Wind Dir Windgeschwindigkeit Böengeschwindigkeit Precip Ereignisse Wetterzustand
6:20 AM 59.0 °F - 59.0 °F 100% 30.21 inch - Ost 2.3 mph - N/A   Heiter
6:50 AM 62.6 °F - 62.6 °F 100% 30.21 inch - Wechselnd 1.2 mph - N/A   Heiter
7:20 AM 68.0 °F - 64.4 °F 88% 30.21 inch - Wechselnd 1.2 mph - N/A   Heiter
7:50 AM 69.8 °F - 62.6 °F 78% 30.21 inch - Südwest 3.5 mph - N/A   Heiter
8:20 AM 71.6 °F - 62.6 °F 73% 30.21 inch - West-Südwest 5.8 mph - N/A   Heiter
8:50 AM 73.4 °F - 64.4 °F 73% 30.21 inch - Südwest 5.8 mph - N/A   Heiter
9:20 AM 73.4 °F - 62.6 °F 69% 30.21 inch - Süd-Südwest 5.8 mph - N/A   Heiter
9:50 AM 75.2 °F - 62.6 °F 65% 30.21 inch - Südwest 4.6 mph - N/A   Heiter
10:20 AM 77.0 °F - 64.4 °F 65% 30.21 inch 6.2 mi Südwest 3.5 mph - N/A   Teils Wolkig
10:50 AM 78.8 °F - 64.4 °F 61% 30.18 inch 6.2 mi Süd-Südwest 4.6 mph - N/A   Teils Wolkig
11:20 AM 78.8 °F - 60.8 °F 54% 30.18 inch 6.2 mi Wechselnd 4.6 mph - N/A   Teils Wolkig
11:50 AM 77.0 °F - 62.6 °F 61% 30.18 inch 6.2 mi West-Nordwest 4.6 mph - N/A   Teils Wolkig
12:20 PM 78.8 °F - 62.6 °F 57% 30.18 inch 6.2 mi Wechselnd 2.3 mph - N/A   Teils Wolkig
12:50 PM 78.8 °F - 62.6 °F 57% 30.18 inch 6.2 mi Wechselnd 2.3 mph - N/A   Teils Wolkig
1:20 PM 78.8 °F - 62.6 °F 57% 30.15 inch 6.2 mi Süd 4.6 mph - N/A   Teils Wolkig
1:50 PM 78.8 °F - 60.8 °F 54% 30.15 inch 6.2 mi Süd 4.6 mph - N/A   Teils Wolkig
2:20 PM 80.6 °F 81.8 °F 62.6 °F 54% 30.15 inch - Süd-Südost 3.5 mph - N/A   Heiter
2:50 PM 82.4 °F 83.4 °F 62.6 °F 51% 30.12 inch 6.2 mi Wechselnd 4.6 mph - N/A   Teils Wolkig
3:20 PM 82.4 °F 82.9 °F 60.8 °F 48% 30.12 inch 6.2 mi West-Nordwest 4.6 mph - N/A   Teils Wolkig
3:50 PM 82.4 °F 83.4 °F 62.6 °F 51% 30.12 inch - Wechselnd 6.9 mph - N/A   Heiter
4:20 PM 82.4 °F 83.4 °F 62.6 °F 51% 30.09 inch - Südwest 8.1 mph - N/A   Heiter
4:50 PM 82.4 °F 82.9 °F 60.8 °F 48% 30.09 inch - West-Südwest 9.2 mph - N/A   Heiter
5:20 PM 82.4 °F 82.9 °F 60.8 °F 48% 30.09 inch - West-Südwest 6.9 mph - N/A   Heiter
5:50 PM 82.4 °F 83.4 °F 62.6 °F 51% 30.06 inch - Süd-Südwest 8.1 mph - N/A   Heiter